Home > Weather > Kumamoto > Past weeks

Flag for Japan Weather for the Past 2 Weeks in Kumamoto, Japan

Now
40 °F

Quite cool.


Feels Like: 40 °F
Forecast: 33 / 62 °F
Wind: 1 mph from Northwest

Location: Kumamoto

Current Time: Feb 11, 2016 at 1:00:47 AM

Latest Report: Feb 11, 2016 at 12:00 AM


Visibility: N/A

Pressure: 30.37 "Hg

Humidity: 73%

Dew point: 32 °F

Location of KumamotoLocation

Historic Weather in Kumamoto — Graph

°F

Kumamoto Temperature Yesterday

Maximum temperature yesterday: 56 °F (at 3:00 PM)
Minimum temperature yesterday: 32 °F (at 6:00 AM)
Average temperature yesterday: 45 °F

High & Low Weather Summary for the Past Weeks

 TemperatureHumidityPressure
High58 °F (Jan 30, 4:00 PM)100% (Jan 29, 6:00 AM)30.47 "Hg (Jan 29, 6:00 AM)
Low31 °F (Feb 7, 7:00 AM)21% (Feb 9, 4:00 PM)29.95 "Hg (Jan 29, 2:00 PM)
Average44 °F72%30.20 "Hg
* Reported Jan 26 11:00 PM — Feb 10 11:00 PM, Kumamoto, Weather by CustomWeather, © 2016

Note: Actual official high and low records may vary slightly from our data, if they occured in-between our weather recording intervals... More about our weather records

Advertising

Kumamoto Weather History for the Previous 24 Hours

 ConditionsComfort  
Time TempWeatherWind HumidityBarometerVisibility
11:00 PM
Wed, Feb 10
42 °FQuite cool.3 mph69%30.36 "HgN/A
10:00 PM43 °FQuite cool.1 mph68%30.34 "HgN/A
9:00 PM44 °FClear.1 mph65%30.33 "Hg12 mi
8:00 PM46 °FCool.1 mph59%30.32 "HgN/A
7:00 PM49 °FCool.1 mph49%30.30 "HgN/A
6:00 PM52 °FPassing clouds.1 mph41%30.29 "Hg25 mi
5:00 PM55 °FCool.6 mph35%30.28 "HgN/A
4:00 PM56 °FRefreshingly cool.9 mph33%30.27 "HgN/A
3:00 PM56 °FScattered clouds.12 mph35%30.26 "Hg22 mi
2:00 PM56 °FRefreshingly cool.8 mph36%30.26 "HgN/A
1:00 PM55 °FCool.2 mph34%30.28 "HgN/A
12:00 PM53 °FScattered clouds.6 mph38%30.31 "Hg19 mi
6:00 AM32 °FClear.5 mph83%30.27 "Hg12 mi
5:00 AM33 °FChilly.5 mph80%30.26 "HgN/A
4:00 AM33 °FChilly.3 mph77%30.26 "HgN/A
3:00 AM33 °FClear.3 mph77%30.26 "Hg12 mi
2:00 AM35 °FChilly.3 mph76%30.26 "HgN/A
1:00 AM36 °FChilly.5 mph72%30.26 "HgN/A
Weather by CustomWeather, © 2016

See weather overviewHow to use our weather pages